Flag for Germany Weather past 2 weeks in Elmshorn, Schleswig-Holstein, Germany

Now
59 °F

Passing clouds.


Feels Like: 58 °F
Forecast: 48 / 58 °F
Wind: 7 mph from South

Location: Hamburg-Fuhlsbuettel

Current Time: May 24, 2015 at 1:45:17 PM

Latest Report: May 24, 2015 at 1:20 PM


Visibility: N/A

Pressure: 30.09 "Hg

Humidity: 48%

Dew point: 39 °F

Location of ElmshornLocation

Historic Weather in Elmshorn — Graph

°F

Elmshorn temperature yesterday

Maximum temperature yesterday: 61 °F (at 3:50 PM)
Minimum temperature yesterday: 45 °F (at 11:50 PM)
Average temperature yesterday: 54 °F

Past Weeks' High & Low Weather Summary

 TemperatureHumidityPressure
High73 °F (May 11, 3:20 PM)100% (May 21, 2:20 AM)30.33 "Hg (May 21, 2:20 AM)
Low37 °F (May 24, 3:50 AM)38% (May 10, 7:20 PM)29.56 "Hg (May 19, 2:20 AM)
Average52 °F74%30.03 "Hg
* Reported May 9 12:20 PM — May 24 12:50 PM, Elmshorn, Weather by CustomWeather, © 2015

Note: Actual official high and low records may vary slightly from our data, if they occured in-between our weather recording intervals... More about our weather records

Advertising

Elmshorn weather history for previous 24 hours

 ConditionsComfort  
Time TempWeatherWind HumidityBarometerVisibility
12:50 PM
Sun, May 24
59 °FPassing clouds.7 mph48%30.12 "HgN/A
12:20 PM59 °FPassing clouds.6 mph51%30.12 "HgN/A
11:50 AM55 °FPassing clouds.3 mph59%30.12 "HgN/A
11:20 AM55 °FPassing clouds.6 mph63%30.12 "HgN/A
10:50 AM54 °FPassing clouds.6 mph63%30.12 "HgN/A
10:20 AM54 °FScattered clouds.7 mph63%30.15 "HgN/A
9:50 AM52 °FScattered clouds.6 mph67%30.15 "HgN/A
9:20 AM52 °FBroken clouds.2 mph72%30.15 "HgN/A
8:50 AM50 °FScattered clouds.3 mph71%30.15 "HgN/A
8:20 AM48 °FScattered clouds.3 mph76%30.15 "HgN/A
7:50 AM48 °FSunny.2 mph82%30.15 "Hg10 mi
7:20 AM45 °FSunny.3 mph100%30.15 "Hg10 mi
6:50 AM41 °FFog.3 mph100%30.15 "HgN/A
6:20 AM37 °FFog.2 mph93%30.15 "HgN/A
5:50 AM37 °FFog.2 mph100%30.15 "HgN/A
5:20 AM37 °FFog.2 mph93%30.15 "HgN/A
4:50 AM37 °FFog.1 mph100%30.15 "HgN/A
4:20 AM37 °FFog.2 mph100%30.15 "HgN/A
3:50 AM37 °FFog.1 mph100%30.15 "HgN/A
3:20 AM39 °FFog.2 mph100%30.15 "HgN/A
2:50 AM39 °FFog.1 mph93%30.15 "HgN/A
2:20 AM41 °FFog.1 mph93%30.15 "HgN/A
1:50 AM41 °FFog.2 mph93%30.15 "HgN/A
1:20 AM41 °FFog.5 mph93%30.15 "HgN/A
12:50 AM43 °FFog.3 mph93%30.15 "HgN/A
12:20 AM45 °FClear.5 mph87%30.18 "Hg10 mi
11:50 PM
Sat, May 23
45 °FClear.3 mph87%30.15 "Hg10 mi
11:20 PM46 °FClear.5 mph87%30.15 "Hg10 mi
10:50 PM48 °FClear.3 mph82%30.15 "Hg10 mi
10:20 PM48 °FSunny.5 mph82%30.15 "Hg10 mi
9:50 PM50 °FSunny.7 mph76%30.15 "Hg10 mi
9:20 PM52 °FPartly sunny.8 mph72%30.15 "HgN/A
8:50 PM54 °FPartly sunny.8 mph67%30.15 "HgN/A
8:20 PM55 °FPartly sunny.9 mph63%30.12 "HgN/A
7:50 PM55 °FPartly sunny.13 mph59%30.12 "HgN/A
7:20 PM57 °FPartly sunny.14 mph59%30.12 "HgN/A
6:50 PM59 °FPartly sunny.14 mph51%30.12 "HgN/A
6:20 PM59 °FPartly sunny.13 mph55%30.12 "HgN/A
5:50 PM59 °FPartly sunny.13 mph55%30.12 "HgN/A
5:20 PM61 °FPartly sunny.12 mph55%30.12 "HgN/A
4:50 PM61 °FPartly sunny.12 mph52%30.12 "HgN/A
4:20 PM61 °FPartly sunny.9 mph52%30.12 "HgN/A
3:50 PM61 °FPartly sunny.9 mph52%30.12 "HgN/A
3:20 PM59 °FPartly sunny.9 mph55%30.12 "HgN/A
2:50 PM59 °FPartly sunny.8 mph55%30.12 "HgN/A
2:20 PM57 °FBroken clouds.12 mph59%30.15 "HgN/A
1:50 PM59 °FBroken clouds.8 mph63%30.15 "HgN/A
1:20 PM55 °FBroken clouds.5 mph72%30.15 "HgN/A
Weather by CustomWeather, © 2015

See weather overviewHow to use our weather pages